Weather Roundup
Issued by NWS Springfield, MO

Home | Current Version | Previous Version | Text Only | Print | Product List | Glossary On
Versions: 1 2 3 4 5 6 7 8 9 10 11 12 13 14 15 16 17 18 19 20 21 22 23 24 25 26 27 28 29 30 31 32 33 34 35 36 37 38 39 40 41 42 43 44 45 46 47 48 49 50
000
NZUS99 KSGF 181057
HRRSGF

HOURLY WEATHER
NATIONAL WEATHER SERVICE SPRINGFIELD MO
500 AM CST THU JAN 18 2018

......SGF CWA......

CITY           SKY/WX    TMP DP  RH WIND       PRES   REMARKS
SPRINGFIELD    CLOUDY     8   2  76 S6        30.40S WCI  -2
JOPLIN         CLOUDY    20   8  60 S13       30.42F WCI   7
WEST PLAINS    CLOUDY    15   7  70 SW5       30.42F WCI   8
ROLLA          CLOUDY    14   7  73 SW14      30.38F WCI  -1

......SURROUNDING SGF CWA......

CITY           SKY/WX    TMP DP  RH WIND       PRES   REMARKS
CHANUTE          N/A    N/A N/A N/A MISG      30.37F
PARSONS        CLOUDY    16   8  71 S6        30.41F WCI   7
COFFEYVILLE    CLOUDY    17   8  67 S8        30.42F WCI   7
EMPORIA        CLOUDY    17   8  67 S5        30.28F WCI  10
HARRISON AR    CLOUDY    16   6  65 NE3       30.42S

......KANSAS AND MISSOURI......

CITY           SKY/WX    TMP DP  RH WIND       PRES   REMARKS
KANSAS CTY INT CLOUDY    18   8  65 SW12      30.28F WCI   5
SEDALIA        CLOUDY    20  10  65 SW21G31   30.35F WCI   4
ST JOSEPH      CLOUDY    15   9  76 S5        30.28F WCI   8
ST LOUIS       CLOUDY    20   9  62 SW13      30.39F WCI   7
WICHITA        CLOUDY    18   7  62 S10       30.30F WCI   6
TOPEKA         CLOUDY    20   9  62 SW7       30.29F WCI  11
OLATHE         CLOUDY    17   7  64 SW8       30.30F WCI   7

......TENNESSEE......

CITY           SKY/WX    TMP DP  RH WIND       PRES   REMARKS
MEMPHIS        NOT AVBL
NASHVILLE      FAIR       9   5  84 S3        30.54R

......ARKANSAS.......

CITY           SKY/WX    TMP DP  RH WIND       PRES   REMARKS
FAYETTEVILLE   CLOUDY    14   7  73 SW5       30.45F WCI   6
FT SMITH       CLOUDY    13   8  81 CALM      30.53F
LITTLE ROCK    CLOUDY    16  10  77 CALM      30.57S

......OKLAHOMA.......

CITY           SKY/WX    TMP DP  RH WIND       PRES   REMARKS
TULSA          CLOUDY    23   8  52 S8        30.45F WCI  14
PONCA CITY     CLOUDY    21   5  50 S6        30.39F WCI  13
MCALESTER      CLOUDY    17   8  67 CALM      30.50F
OKLAHOMA CITY  CLOUDY    18   6  59 S8        30.41F WCI   8

......IOWA............

CITY           SKY/WX    TMP DP  RH WIND       PRES   REMARKS
DES MOINES     NOT AVBL
QUAD CITIES    FAIR      18  11  74 SW10      30.20F WCI   6

......ILLINOIS........

CITY           SKY/WX    TMP DP  RH WIND       PRES   REMARKS
QUINCY         NOT AVBL
CHICAGO        FAIR      17   9  70 W12G21    30.15S WCI   4



USA.gov is the U.S. government's official web portal to all federal, state and local government web resources and services.